Flag for Germany Weather past 2 weeks in Lübbecke, North Rhine-Westphalia, Germany

Now
41 °F

Scattered showers. Partly sunny.


Feels Like: 36 °F
Forecast: 33 / 39 °F
Wind: 8 mph from West

Location: Bueckeburg

Current Time: Mar 2, 2015 at 5:12:24 PM

Latest Report: Mar 2, 2015 at 4:20 PM


Visibility: N/A

Pressure: 29.62 "Hg

Humidity: 81%

Dew point: 36 °F

Location of LübbeckeLocation

Historic Weather in Lübbecke — Graph

°F

Lübbecke temperature yesterday

Maximum temperature yesterday: 50 °F (at 1:20 PM)
Minimum temperature yesterday: 39 °F (at 12:20 AM)
Average temperature yesterday: 44 °F

Past Weeks' High & Low Weather Summary

 TemperatureHumidityPressure
High50 °F (Mar 1, 1:20 PM)100% (Feb 16, 1:20 AM)30.74 "Hg (Feb 16, 1:20 AM)
Low27 °F (Feb 16, 7:20 AM)46% (Feb 28, 3:20 PM)29.30 "Hg (Feb 21, 6:20 AM)
Average39 °F79%29.92 "Hg
* Reported Feb 15 3:20 PM — Mar 2 3:55 PM, Lübbecke, Weather by CustomWeather, © 2015

Note: Actual official high and low records may vary slightly from our data, if they occured in-between our weather recording intervals... More about our weather records

Advertising

Lübbecke weather history for previous 24 hours

 ConditionsComfort  
Time TempWeatherWind HumidityBarometerVisibility
3:55 PM
Mon, Mar 2
39 °FBroken clouds.14 mph87%29.62 "HgN/A
3:20 PM46 °FSprinkles. Partly sunny.13 mph53%29.59 "HgN/A
2:20 PM46 °FScattered showers. Partly sunny.18 mph53%29.59 "HgN/A
1:20 PM45 °FPartly sunny.16 mph57%29.59 "HgN/A
12:20 PM45 °FPartly sunny.18 mph57%29.59 "HgN/A
11:20 AM43 °FPartly sunny.22 mph61%29.56 "HgN/A
10:20 AM43 °FPartly sunny.18 mph66%29.53 "HgN/A
9:20 AM39 °FScattered clouds.18 mph75%29.53 "HgN/A
8:20 AM39 °FBroken clouds.18 mph75%29.50 "HgN/A
7:20 AM39 °FScattered clouds.20 mph70%29.47 "HgN/A
6:20 AM41 °FPassing clouds.17 mph70%29.45 "HgN/A
5:20 AM41 °FPassing clouds.21 mph76%29.45 "HgN/A
4:20 AM43 °FPassing clouds.17 mph76%29.39 "HgN/A
3:20 AM43 °FPassing clouds.16 mph81%29.39 "HgN/A
2:46 AM41 °FSprinkles. Partly cloudy.21 mph87%29.36 "HgN/A
2:20 AM45 °FLight rain. Passing clouds.16 mph81%29.36 "Hg5 mi
1:20 AM43 °FLight rain. Passing clouds.5 mph81%29.45 "Hg6 mi
12:20 AM43 °FPassing clouds.12 mph81%29.45 "HgN/A
11:20 PM
Sun, Mar 1
43 °FPassing clouds.10 mph81%29.50 "HgN/A
10:20 PM45 °FPassing clouds.9 mph71%29.53 "HgN/A
9:20 PM45 °FPassing clouds.9 mph71%29.53 "HgN/A
8:20 PM45 °FPassing clouds.12 mph71%29.56 "HgN/A
7:20 PM45 °FQuite cool.10 mph71%29.56 "HgN/A
6:20 PM45 °FQuite cool.12 mph71%29.56 "HgN/A
5:20 PM48 °FCool.17 mph62%29.53 "Hg6 mi
Weather by CustomWeather, © 2015

See weather overviewHow to use our weather pages